Regional Weather Roundup
Issued by NWS

Home | Current Version | Previous Version | Graphics & Text | Print | Product List | Glossary On
Versions: 1 2 3 4 5 6 7 8 9 10 11 12 13 14 15 16 17 18 19 20 21 22 23 24 25 26 27 28 29 30 31 32 33 34 35 36 37 38 39 40 41 42 43 44 45 46 47 48 49 50
000
ASUS43 KDMX 141701
RWRIA

WEATHER ROUNDUP FOR IOWA
NATIONAL WEATHER SERVICE DES MOINES IA
1100 AM CST THU DEC 14 2017

NOTE: "FAIR" INDICATES FEW OR NO CLOUDS BELOW 12,000 FEET WITH NO
SIGNIFICANT WEATHER AND/OR OBSTRUCTIONS TO VISIBILITY.

* - THESE STATIONS ARE NOT NWS STATIONS...THUS NOT UNDER NWS
QUALITY CONTROL.  THEY ALSO DO NOT REPORT WEATHER SUCH
AS PRECIPITATION OR FOG.

IAZ001>003-012>014-020>022-031>034-043>046-141800-
   NORTHWEST IOWA

CITY           SKY/WX    TMP DP  RH WIND       PRES   REMARKS
CARROLL *      CLOUDY    28  21  74 W5        30.07S WCI  23
CHEROKEE *     CLOUDY    27  25  95 S5        30.07S WCI  21
DENISON *      CLOUDY    28  25  86 CALM      30.09R
LE MARS *      PTSUNNY   32  25  74 VRB6      30.06S WCI  26
ORANGE CITY *  CLOUDY    30  28  93 SW3       30.04S
SHELDON *      CLOUDY    28  27  93 SW3       30.03S
SIOUX CITY     CLOUDY    36  27  69 CALM      30.07R
SPENCER        CLOUDY    26  20  77 SW7       30.05S WCI  18
STORM LAKE *   CLOUDY    27  21  80 CALM      30.05S
$$

IAZ055>058-069>071-079>083-090>094-141800-
   SOUTHWEST IOWA

CITY           SKY/WX    TMP DP  RH WIND       PRES   REMARKS
ATLANTIC *     CLOUDY    30  23  74 CALM      30.08S
AUDUBON *      CLOUDY    28  21  74 CALM      30.08S
CLARINDA *     CLOUDY    34  25  69 CALM        N/A
COUNCIL BLFS * CLOUDY    37  30  75 VRB6      30.07S WCI  33
CRESTON *      CLOUDY    30  21  69 CALM      30.08S
HARLAN  *      CLOUDY    30  25  80 SE5       30.11S WCI  25
LAMONI         CLOUDY    31  20  63 N6        30.08S WCI  25
RED OAK *      CLOUDY    34  27  75 CALM      30.09R
SHENANDOAH *   CLOUDY    37  28  70 CALM      30.10R
$$

IAZ047>049-059>061-072>074-084-141800-
   CENTRAL IOWA

CITY           SKY/WX    TMP DP  RH WIND       PRES   REMARKS
AMES           CLOUDY    28  18  66 CALM      30.09R
ANKENY *       CLOUDY    27  16  63 CALM      30.11S
BOONE *        CLOUDY    27  18  69 VRB3      30.07S
CHARITON *     CLOUDY    28  18  64 N6        30.08F WCI  22
DES MOINES     PTSUNNY   30  17  58 NE5       30.09F WCI  25
GRINNELL*      CLOUDY    24  17  73 CALM      30.10R
KNOXVILLE *    CLOUDY    27  14  59 N8        30.08S WCI  18
MARSHALLTOWN   CLOUDY    24  17  74 VRB3      30.08S
NEWTON *       CLOUDY    25  18  74 NW6       30.09S WCI  18
PELLA *        PTSUNNY   27  17  66 CALM      30.11S
PERRY *        CLOUDY    28  18  66 CALM      30.09S
$$

IAZ004>006-015-016-023>025-035-036-141800-
   NORTH CENTRAL IOWA

CITY           SKY/WX    TMP DP  RH WIND       PRES   REMARKS
ALGONA *       CLOUDY    25  19  80 W8        30.04F WCI  16
CLARION *      CLOUDY    25  18  74 CALM      30.06S
ESTHERVILLE    CLOUDY    24  19  81 W5        30.03S WCI  18
FORT DODGE *   CLOUDY    26  19  74 CALM      30.07R
MASON CITY     MOSUNNY   23  14  68 NW7       30.06S WCI  15
FOREST CITY *  CLOUDY    25  19  80 CALM      30.04F
WEBSTER CITY * CLOUDY    27  18  69 W5        30.05S WCI  21
IOWA FALLS *   CLOUDY    26  17  70 W6        30.07S WCI  19
$$

IAZ007>011-017>019-026>030-037>042-050>054-066-141800-
   NORTHEAST IOWA

CITY           SKY/WX    TMP DP  RH WIND       PRES   REMARKS
CEDAR RAPIDS   PTSUNNY   24  16  71 CALM      30.09S
CHARLES CITY * SUNNY     21  18  86 VRB5      30.07S WCI  15
CLINTON *      FLURRIES  25  12  58 VRB3      30.11F
DECORAH *      SUNNY     19  14  79 S3        30.05F
DUBUQUE        SUNNY     21  11  65 VRB3      30.07F
MONTICELLO *   PTSUNNY   23  14  68 CALM      30.08F
OELWEIN *      CLOUDY    21  18  86 S7        30.07F WCI  13
WATERLOO       MOSUNNY   22  14  71 S6        30.09R WCI  14
$$

IAZ064-065-067-068-078-141800-
   EAST CENTRAL IOWA

CITY           SKY/WX    TMP DP  RH WIND       PRES   REMARKS
DAVENPORT      MOSUNNY   25  15  66 CALM      30.12S
IOWA CITY      MOSUNNY   24  16  71 CALM      30.13S
MT. PLEASANT * MOSUNNY   28  17  63 CALM      30.11F
MUSCATINE *    CLOUDY    27  16  63 CALM      30.12F
QUAD CITIES    CLOUDY    26  14  60 CALM      30.10F
$$

IAZ062-063-075>077-085>089-095>099-141800-
   SOUTHEAST IOWA

CITY           SKY/WX    TMP DP  RH WIND       PRES   REMARKS
BURLINGTON     CLOUDY    27  17  66 CALM      30.10S
FAIRFIELD *    CLOUDY    25  14  63 CALM      30.10F
FORT MADISON * MOSUNNY   28  18  64 CALM      30.10F
KEOKUK *       CLOUDY    28  16  59 NE9       30.10F WCI  20
OSKALOOSA *    CLOUDY    25  17  69 CALM      30.10F
OTTUMWA        CLOUDY    26  15  63 E6        30.09F WCI  19
WASHINGTON *   PTSUNNY   25  18  74 NW7       30.12S WCI  17
$$

ABBREVIATIONS USED IN REMARKS
   TC - TEMPERATURES IN CELSIUS
  WCI - WIND CHILL INDEX
   HX - HEAT INDEX
  VSB - VISIBILITY
$$





USA.gov is the U.S. government's official web portal to all federal, state and local government web resources and services.